Location: Dompnac
(44.5644°N, 4.1026°E)
Time: 10:46:14
(UTC+00:00)

Cosmos 1937 Rocket - Pass Details

Date: 19 September 2020
Orbit: 747 x 779 km, 74.0° (Epoch: 29 October)

Event Time Altitude Azimuth Distance (km) Brightness Sun altitude
Rises 18:14:15 0° 190° (S) 3,233 6.8 -5.8°
Reaches altitude 10° 18:16:38 10° 187° (S) 2,306 6.0 -6.3°
Maximum altitude 18:21:48 65° 107° (ESE) 844 3.5 -7.2°
Drops below altitude 10° 18:26:58 10° 27° (NNE) 2,301 5.8 -8.1°
Sets 18:29:21 0° 24° (NNE) 3,226 6.6 -8.5°
